Time,TemperatureF,DewpointF,PressureIn,WindDirection,WindDirectionDegrees,WindSpeedMPH,WindSpeedGustMPH,Humidity,HourlyPrecipIn,Conditions,Clouds,dailyrainin,SoftwareType,DateUTC
2013-02-26 00:01:00,35.0,30.0,30.15,SSE,159,0.0,0.0,82,0.00,,,0.00,,2013-02-26 08:01:00,
2013-02-26 00:11:00,35.0,30.0,30.15,SSE,159,0.0,0.0,82,0.00,,,0.00,,2013-02-26 08:11:00,
2013-02-26 00:21:00,35.0,30.0,30.15,SSE,159,0.0,0.0,82,0.00,,,0.00,,2013-02-26 08:21:00,
2013-02-26 00:31:00,35.0,30.0,30.15,SSE,159,0.0,0.0,83,0.00,,,0.00,,2013-02-26 08:31:00,
2013-02-26 00:41:00,35.0,30.0,30.15,SSE,159,0.0,0.0,83,0.00,,,0.00,,2013-02-26 08:41:00,
2013-02-26 00:51:00,35.0,30.0,30.15,SSE,159,0.0,0.0,83,0.00,,,0.00,,2013-02-26 08:51:00,
2013-02-26 01:01:00,34.0,30.0,30.15,SSE,159,0.0,0.0,84,0.00,,,0.00,,2013-02-26 09:01:00,
2013-02-26 01:11:00,34.0,30.0,30.15,SSE,159,0.0,0.0,84,0.00,,,0.00,,2013-02-26 09:11:00,
2013-02-26 01:21:00,34.0,30.0,30.15,SSE,159,0.0,0.0,84,0.00,,,0.00,,2013-02-26 09:21:00,
2013-02-26 01:31:00,33.0,29.0,30.15,SSE,159,0.0,0.0,85,0.00,,,0.00,,2013-02-26 09:31:00,
2013-02-26 01:42:00,33.0,29.0,30.15,SSE,159,0.0,0.0,85,0.00,,,0.00,,2013-02-26 09:42:00,
2013-02-26 01:51:00,33.0,29.0,30.15,SSE,159,0.0,0.0,85,0.00,,,0.00,,2013-02-26 09:51:00,
2013-02-26 02:01:00,32.0,28.0,30.15,SSE,159,0.0,0.0,85,0.00,,,0.00,,2013-02-26 10:01:00,
2013-02-26 02:31:00,32.0,28.0,30.14,SSE,159,0.0,0.0,85,0.00,,,0.00,,2013-02-26 10:31:00,
2013-02-26 02:41:00,32.0,28.0,30.14,SSE,159,0.0,0.0,85,0.00,,,0.00,,2013-02-26 10:41:00,
2013-02-26 02:51:00,32.0,28.0,30.14,SSE,159,0.0,0.0,86,0.00,,,0.00,,2013-02-26 10:51:00,
2013-02-26 03:01:00,32.0,28.0,30.14,SSE,159,0.0,0.0,86,0.00,,,0.00,,2013-02-26 11:01:00,
2013-02-26 03:11:00,32.0,28.0,30.14,SSE,159,0.0,0.0,86,0.00,,,0.00,,2013-02-26 11:11:00,
2013-02-26 03:21:00,31.0,27.0,30.14,SSE,159,0.0,0.0,86,0.00,,,0.00,,2013-02-26 11:21:00,
2013-02-26 03:31:00,31.0,27.0,30.15,SSE,159,0.0,0.0,86,0.00,,,0.00,,2013-02-26 11:31:00,
2013-02-26 03:41:00,31.0,27.0,30.15,SSE,159,0.0,0.0,86,0.00,,,0.00,,2013-02-26 11:41:00,
2013-02-26 03:52:00,31.0,28.0,30.13,SSE,159,0.0,0.0,87,0.00,,,0.00,,2013-02-26 11:52:00,
2013-02-26 04:01:00,31.0,28.0,30.13,SSE,159,0.0,0.0,87,0.00,,,0.00,,2013-02-26 12:01:00,
2013-02-26 04:11:00,31.0,28.0,30.13,SSE,159,0.0,0.0,87,0.00,,,0.00,,2013-02-26 12:11:00,
2013-02-26 04:22:00,30.0,27.0,30.14,SSE,159,0.0,0.0,87,0.00,,,0.00,,2013-02-26 12:22:00,
2013-02-26 04:32:00,30.0,27.0,30.14,SSE,159,0.0,0.0,87,0.00,,,0.00,,2013-02-26 12:32:00,
2013-02-26 04:42:00,30.0,27.0,30.14,SSE,159,0.0,0.0,87,0.00,,,0.00,,2013-02-26 12:42:00,
2013-02-26 04:52:00,30.0,27.0,30.13,SSE,159,0.0,0.0,87,0.00,,,0.00,,2013-02-26 12:52:00,
2013-02-26 05:01:00,30.0,27.0,30.14,SSE,159,0.0,0.0,87,0.00,,,0.00,,2013-02-26 13:01:00,
2013-02-26 05:52:00,29.0,26.0,30.14,SSE,159,0.0,0.0,87,0.00,,,0.00,,2013-02-26 13:52:00,
2013-02-26 06:01:00,29.0,26.0,30.15,SSE,159,0.0,0.0,88,0.00,,,0.00,,2013-02-26 14:01:00,
2013-02-26 06:31:00,29.0,26.0,30.15,SSE,159,0.0,0.0,87,0.00,,,0.00,,2013-02-26 14:31:00,
2013-02-26 06:41:00,29.0,26.0,30.15,SSE,159,0.0,0.0,87,0.00,,,0.00,,2013-02-26 14:41:00,
2013-02-26 06:52:00,29.0,26.0,30.15,SSE,159,0.0,0.0,87,0.00,,,0.00,,2013-02-26 14:52:00,
2013-02-26 07:01:00,29.0,26.0,30.15,SSE,159,0.0,0.0,87,0.00,,,0.00,,2013-02-26 15:01:00,
2013-02-26 07:11:00,29.0,26.0,30.15,SSE,159,0.0,0.0,87,0.00,,,0.00,,2013-02-26 15:11:00,
2013-02-26 07:21:00,29.0,26.0,30.15,SSE,159,0.0,0.0,87,0.00,,,0.00,,2013-02-26 15:21:00,
2013-02-26 07:31:00,29.0,26.0,30.16,SSE,159,0.0,0.0,87,0.00,,,0.00,,2013-02-26 15:31:00,
2013-02-26 07:41:00,29.0,26.0,30.16,SSE,159,0.0,0.0,87,0.00,,,0.00,,2013-02-26 15:41:00,
2013-02-26 07:52:00,29.0,26.0,30.16,SSE,159,0.0,0.0,88,0.00,,,0.00,,2013-02-26 15:52:00,
2013-02-26 08:01:00,29.0,26.0,30.16,SSE,159,0.0,0.0,88,0.00,,,0.00,,2013-02-26 16:01:00,
2013-02-26 08:11:00,29.0,26.0,30.16,SSE,159,0.0,0.0,88,0.00,,,0.00,,2013-02-26 16:11:00,
2013-02-26 08:22:00,30.0,27.0,30.17,SSE,159,0.0,0.0,88,0.00,,,0.00,,2013-02-26 16:22:00,
2013-02-26 08:31:00,32.0,29.0,30.17,SSE,159,0.0,0.0,90,0.00,,,0.00,,2013-02-26 16:31:00,
2013-02-26 08:41:00,32.0,29.0,30.17,SSE,159,0.0,0.0,90,0.00,,,0.00,,2013-02-26 16:41:00,
2013-02-26 08:52:00,33.0,30.0,30.17,SSE,159,0.0,0.0,90,0.00,,,0.00,,2013-02-26 16:52:00,
2013-02-26 09:01:00,36.0,34.0,30.18,SSE,159,0.0,0.0,92,0.00,,,0.00,,2013-02-26 17:01:00,
2013-02-26 09:11:00,37.0,35.0,30.17,SSE,159,0.0,0.0,91,0.00,,,0.00,,2013-02-26 17:11:00,
2013-02-26 09:21:00,37.0,35.0,30.17,SSE,159,0.0,0.0,91,0.00,,,0.00,,2013-02-26 17:21:00,
2013-02-26 09:32:00,37.0,35.0,30.17,SSE,159,0.0,0.0,91,0.00,,,0.00,,2013-02-26 17:32:00,
2013-02-26 09:41:00,37.0,35.0,30.17,SSE,159,0.0,0.0,91,0.00,,,0.00,,2013-02-26 17:41:00,
2013-02-26 09:52:00,43.0,39.0,30.17,SSE,158,0.0,1.0,86,0.00,,,0.00,,2013-02-26 17:52:00,
2013-02-26 10:01:00,48.0,40.0,30.16,SSE,159,0.0,2.0,74,0.00,,,0.00,,2013-02-26 18:01:00,
2013-02-26 10:12:00,48.0,40.0,30.16,SSE,159,0.0,2.0,74,0.00,,,0.00,,2013-02-26 18:12:00,
2013-02-26 10:21:00,51.0,40.0,30.16,NW,323,0.0,3.0,67,0.00,,,0.00,,2013-02-26 18:21:00,
2013-02-26 10:31:00,55.0,37.0,30.15,North,349,1.0,5.0,51,0.00,,,0.00,,2013-02-26 18:31:00,
2013-02-26 10:42:00,55.0,37.0,30.15,North,349,1.0,5.0,51,0.00,,,0.00,,2013-02-26 18:42:00,
2013-02-26 10:52:00,55.0,37.0,30.15,North,349,1.0,5.0,51,0.00,,,0.00,,2013-02-26 18:52:00,
2013-02-26 11:01:00,59.0,34.0,30.15,NW,326,0.0,6.0,39,0.00,,,0.00,,2013-02-26 19:01:00,
2013-02-26 11:10:00,61.0,32.0,30.14,North,355,1.0,6.0,33,0.00,,,0.00,,2013-02-26 19:10:00,
2013-02-26 11:11:00,59.0,34.0,30.15,NW,326,0.0,6.0,39,0.00,,,0.00,,2013-02-26 19:11:00,
2013-02-26 11:21:00,60.0,33.0,30.14,North,10,0.0,5.0,36,0.00,,,0.00,,2013-02-26 19:21:00,
2013-02-26 11:31:00,61.0,32.0,30.14,North,355,1.0,6.0,33,0.00,,,0.00,,2013-02-26 19:31:00,
2013-02-26 11:41:00,61.0,32.0,30.14,North,355,1.0,6.0,33,0.00,,,0.00,,2013-02-26 19:41:00,
2013-02-26 11:51:00,61.0,32.0,30.14,North,355,1.0,6.0,33,0.00,,,0.00,,2013-02-26 19:51:00,
2013-02-26 12:01:00,61.0,32.0,30.14,North,355,1.0,6.0,33,0.00,,,0.00,,2013-02-26 20:01:00,
2013-02-26 12:22:00,65.0,29.0,30.12,NNW,329,0.0,3.0,26,0.00,,,0.00,,2013-02-26 20:22:00,
2013-02-26 12:32:00,66.0,28.0,30.12,NNW,333,0.0,4.0,24,0.00,,,0.00,,2013-02-26 20:32:00,
2013-02-26 12:41:00,66.0,28.0,30.12,NNW,333,0.0,4.0,24,0.00,,,0.00,,2013-02-26 20:41:00,
2013-02-26 12:52:00,66.0,28.0,30.12,NNW,333,0.0,4.0,24,0.00,,,0.00,,2013-02-26 20:52:00,
2013-02-26 13:01:00,67.0,29.0,30.10,SE,131,0.0,3.0,24,0.00,,,0.00,,2013-02-26 21:01:00,
2013-02-26 13:11:00,67.0,29.0,30.10,SE,131,0.0,3.0,24,0.00,,,0.00,,2013-02-26 21:11:00,
2013-02-26 13:21:00,68.0,30.0,30.10,SSE,148,0.0,3.0,24,0.00,,,0.00,,2013-02-26 21:21:00,
2013-02-26 13:31:00,68.0,30.0,30.10,SSE,148,0.0,3.0,24,0.00,,,0.00,,2013-02-26 21:31:00,
2013-02-26 13:41:00,68.0,30.0,30.10,SSE,148,0.0,3.0,24,0.00,,,0.00,,2013-02-26 21:41:00,
2013-02-26 13:51:00,70.0,34.0,30.08,SSW,206,0.0,3.0,26,0.00,,,0.00,,2013-02-26 21:51:00,
2013-02-26 14:01:00,70.0,34.0,30.08,WSW,244,0.0,2.0,26,0.00,,,0.00,,2013-02-26 22:01:00,
2013-02-26 14:11:00,70.0,34.0,30.08,SSW,194,1.0,5.0,27,0.00,,,0.00,,2013-02-26 22:11:00,
2013-02-26 14:21:00,70.0,34.0,30.08,SSW,194,1.0,5.0,27,0.00,,,0.00,,2013-02-26 22:21:00,
2013-02-26 14:31:00,70.0,34.0,30.07,West,259,1.0,3.0,26,0.00,,,0.00,,2013-02-26 22:31:00,
2013-02-26 14:41:00,70.0,34.0,30.07,West,259,1.0,3.0,26,0.00,,,0.00,,2013-02-26 22:41:00,
2013-02-26 14:51:00,70.0,34.0,30.07,West,259,1.0,3.0,26,0.00,,,0.00,,2013-02-26 22:51:00,
2013-02-26 15:01:00,72.0,34.0,30.06,WSW,239,0.0,5.0,25,0.00,,,0.00,,2013-02-26 23:01:00,
2013-02-26 15:11:00,72.0,34.0,30.06,WSW,239,0.0,5.0,25,0.00,,,0.00,,2013-02-26 23:11:00,
2013-02-26 15:21:00,71.0,33.0,30.07,West,260,0.0,5.0,25,0.00,,,0.00,,2013-02-26 23:21:00,
2013-02-26 15:31:00,69.0,34.0,30.07,WNW,284,0.0,4.0,27,0.00,,,0.00,,2013-02-26 23:31:00,
2013-02-26 15:41:00,69.0,34.0,30.07,WNW,284,0.0,4.0,27,0.00,,,0.00,,2013-02-26 23:41:00,
2013-02-26 15:51:00,68.0,31.0,30.07,WNW,285,0.0,3.0,25,0.00,,,0.00,,2013-02-26 23:51:00,
2013-02-26 16:01:00,67.0,32.0,30.07,WSW,258,0.0,3.0,27,0.00,,,0.00,,2013-02-27 00:01:00,
2013-02-26 16:11:00,67.0,32.0,30.07,WSW,258,0.0,3.0,27,0.00,,,0.00,,2013-02-27 00:11:00,
2013-02-26 16:21:00,67.0,32.0,30.07,WSW,258,0.0,3.0,27,0.00,,,0.00,,2013-02-27 00:21:00,
2013-02-26 16:31:00,68.0,30.0,30.07,NNW,347,0.0,1.0,24,0.00,,,0.00,,2013-02-27 00:31:00,
2013-02-26 16:41:00,68.0,30.0,30.07,NNW,347,0.0,1.0,24,0.00,,,0.00,,2013-02-27 00:41:00,
2013-02-26 16:51:00,69.0,29.0,30.08,West,260,0.0,3.0,22,0.00,,,0.00,,2013-02-27 00:51:00,
2013-02-26 17:01:00,69.0,31.0,30.07,West,261,0.0,1.0,24,0.00,,,0.00,,2013-02-27 01:01:00,
2013-02-26 17:11:00,69.0,31.0,30.07,West,261,0.0,1.0,24,0.00,,,0.00,,2013-02-27 01:11:00,
2013-02-26 17:21:00,69.0,30.0,30.08,West,261,0.0,0.0,23,0.00,,,0.00,,2013-02-27 01:21:00,
2013-02-26 17:31:00,68.0,33.0,30.08,SSE,168,0.0,2.0,27,0.00,,,0.00,,2013-02-27 01:31:00,
2013-02-26 17:41:00,68.0,33.0,30.08,SSE,168,0.0,2.0,27,0.00,,,0.00,,2013-02-27 01:41:00,
2013-02-26 17:51:00,64.0,34.0,30.08,SE,145,0.0,2.0,32,0.00,,,0.00,,2013-02-27 01:51:00,
2013-02-26 18:01:00,61.0,34.0,30.08,SE,145,0.0,1.0,36,0.00,,,0.00,,2013-02-27 02:01:00,
2013-02-26 18:12:00,61.0,34.0,30.08,SE,145,0.0,1.0,36,0.00,,,0.00,,2013-02-27 02:12:00,
2013-02-26 18:21:00,59.0,33.0,30.09,SE,145,0.0,0.0,38,0.00,,,0.00,,2013-02-27 02:21:00,
2013-02-26 18:31:00,56.0,34.0,30.09,SE,145,0.0,1.0,44,0.00,,,0.00,,2013-02-27 02:31:00,
2013-02-26 18:41:00,56.0,34.0,30.09,SE,145,0.0,1.0,44,0.00,,,0.00,,2013-02-27 02:41:00,
2013-02-26 18:51:00,55.0,36.0,30.09,SE,145,0.0,0.0,48,0.00,,,0.00,,2013-02-27 02:51:00,
2013-02-26 19:01:00,52.0,37.0,30.10,SE,145,0.0,0.0,56,0.00,,,0.00,,2013-02-27 03:01:00,
2013-02-26 19:11:00,52.0,37.0,30.10,SE,145,0.0,0.0,56,0.00,,,0.00,,2013-02-27 03:11:00,
2013-02-26 19:21:00,50.0,37.0,30.11,SE,145,0.0,0.0,60,0.00,,,0.00,,2013-02-27 03:21:00,
2013-02-26 19:31:00,49.0,38.0,30.11,SE,145,0.0,0.0,65,0.00,,,0.00,,2013-02-27 03:31:00,
2013-02-26 19:41:00,49.0,38.0,30.11,SE,145,0.0,0.0,65,0.00,,,0.00,,2013-02-27 03:41:00,
2013-02-26 19:51:00,48.0,37.0,30.11,SE,145,0.0,0.0,66,0.00,,,0.00,,2013-02-27 03:51:00,
2013-02-26 20:01:00,47.0,37.0,30.11,SE,145,0.0,0.0,68,0.00,,,0.00,,2013-02-27 04:01:00,
2013-02-26 20:11:00,47.0,37.0,30.11,SE,145,0.0,0.0,68,0.00,,,0.00,,2013-02-27 04:11:00,
2013-02-26 20:21:00,46.0,37.0,30.12,SE,145,0.0,0.0,71,0.00,,,0.00,,2013-02-27 04:21:00,
2013-02-26 20:31:00,46.0,37.0,30.12,SE,145,0.0,0.0,71,0.00,,,0.00,,2013-02-27 04:31:00,
2013-02-26 20:41:00,46.0,37.0,30.12,SE,145,0.0,0.0,71,0.00,,,0.00,,2013-02-27 04:41:00,
2013-02-26 20:52:00,45.0,36.0,30.13,SE,145,0.0,0.0,71,0.00,,,0.00,,2013-02-27 04:52:00,
2013-02-26 21:01:00,43.0,35.0,30.13,SE,145,0.0,0.0,74,0.00,,,0.00,,2013-02-27 05:01:00,
2013-02-26 21:11:00,43.0,35.0,30.13,SE,145,0.0,0.0,74,0.00,,,0.00,,2013-02-27 05:11:00,
2013-02-26 21:21:00,43.0,35.0,30.14,SE,145,0.0,0.0,74,0.00,,,0.00,,2013-02-27 05:21:00,
2013-02-26 21:32:00,42.0,35.0,30.14,SE,145,0.0,0.0,75,0.00,,,0.00,,2013-02-27 05:32:00,
2013-02-26 21:41:00,42.0,35.0,30.14,SE,145,0.0,0.0,75,0.00,,,0.00,,2013-02-27 05:41:00,
2013-02-26 21:51:00,41.0,33.0,30.14,SE,145,0.0,0.0,74,0.00,,,0.00,,2013-02-27 05:51:00,
2013-02-26 22:02:00,41.0,34.0,30.15,SE,145,0.0,0.0,76,0.00,,,0.00,,2013-02-27 06:02:00,
2013-02-26 22:11:00,41.0,34.0,30.15,SE,145,0.0,0.0,76,0.00,,,0.00,,2013-02-27 06:11:00,
2013-02-26 22:21:00,40.0,33.0,30.14,SE,145,0.0,0.0,76,0.00,,,0.00,,2013-02-27 06:21:00,
2013-02-26 22:32:00,39.0,32.0,30.14,SE,145,0.0,0.0,76,0.00,,,0.00,,2013-02-27 06:32:00,
2013-02-26 22:41:00,39.0,32.0,30.14,SE,145,0.0,0.0,76,0.00,,,0.00,,2013-02-27 06:41:00,
2013-02-26 22:51:00,39.0,32.0,30.15,SE,145,0.0,0.0,77,0.00,,,0.00,,2013-02-27 06:51:00,
2013-02-26 23:01:00,38.0,32.0,30.14,SE,145,0.0,0.0,79,0.00,,,0.00,,2013-02-27 07:01:00,
2013-02-26 23:11:00,38.0,32.0,30.14,SE,145,0.0,0.0,79,0.00,,,0.00,,2013-02-27 07:11:00,
2013-02-26 23:21:00,38.0,32.0,30.14,SE,145,0.0,0.0,79,0.00,,,0.00,,2013-02-27 07:21:00,
2013-02-26 23:31:00,37.0,31.0,30.15,SE,145,0.0,0.0,80,0.00,,,0.00,,2013-02-27 07:31:00,
2013-02-26 23:41:00,37.0,31.0,30.15,SE,145,0.0,0.0,80,0.00,,,0.00,,2013-02-27 07:41:00,
2013-02-26 23:51:00,37.0,31.0,30.14,SE,145,0.0,0.0,79,0.00,,,0.00,,2013-02-27 07:51:00,